Track YAOGAN-30 D now! 10-day predictions YAOGAN-30 D is classified as:
1 43028U 17075A 23081.48585110 .00004118 00000-0 40321-3 0 9990 2 43028 34.9976 218.3935 0001774 76.0407 284.0445 14.91795326290073